STARLINK-5981 (56325 NORAD) Tracking and Keplerian Element Data

This shows tracking and keplerian element data for the satellite.

Feedback or suggestion? Click here.




ElementValue
Catalog56325
NameSTARLINK-5981
Epoch Orbit179
Epoch Day126.91667824
Epoch Year2023
RAAN126.3816
Inclination97.6633
Eccentricity0.0001577
Argument of Perigee94.5055
Mean Anonmoly121.8579
Mean Motion15.6817079
Decay Rate-0.00796828
L11 56325U 23058J 23126.91667824 -.00796828 00000+0 -78803-2 0 9995
L22 56325 97.6633 126.3816 0001577 94.5055 121.8579 15.68170790 1796



Live tracking and technical data element details for STARLINK-5981 (NORAD 56325). STARLINK-5981 can be tracked NOW for your location showing map with azimuth and elevation plus other details from your city location.







IsCatalogInMostPopularTable: catalog: 56325, numindb: 4
Update: records affected: 1



GetName: 56325 STARLINK-5981

Hit Count: updated at: Wed, 07 Jun 2023 08:55:42 GMT